Location: *
(46.1200°N, 11.2700°E)
Time: 15:10:46
(UTC+00:00)

Meteor 2-4 Rocket - Pass Details

Date: 02 March 2021
Orbit: 799 x 908 km, 81.2° (Epoch: 23 April)

Event Time Altitude Azimuth Distance (km) Brightness Sun altitude
Rises 18:56:59 0° 346° (NNW) 3,486 7.3 -20.5°
Reaches altitude 10° 18:59:26 10° 343° (NNW) 2,557 6.6 -20.9°
Maximum altitude 19:05:11 64° 264° (W) 993 4.2 -21.9°
Drops below altitude 10° 19:11:01 10° 184° (S) 2,582 6.1 -22.9°
Sets 19:13:30 0° 181° (S) 3,522 6.8 -23.3°
